Location: Newark
(41.1142°N, 73.9831°W)
Time: 21:29:15
(UTC+00:00)

N. Korean satellite - Pass Details

Date: 01 October 2019
Orbit: 455 x 508 km, 97.2° (Epoch: 13 October)

Event Time Altitude Azimuth Distance (km) Brightness Sun altitude
Rises 09:45:26 0° 36° (NE) 2,489 10.9 -13.4°
Reaches altitude 10° 09:48:55 10° 75° (ENE) 1,616 10.7 -12.8°
Maximum altitude 09:49:54 11° 91° (E) 1,559 10.6 -12.6°
Drops below altitude 10° 09:50:53 10° 108° (ESE) 1,619 10.3 -12.4°
Sets 09:54:23 0° 146° (SE) 2,501 10.6 -11.7°
